A/2019 Y5

Japanese version
Home page
Updated on February 19, 2020

---------------------------------------------------------------------

* Profile

Discovery Date December 28, 2019
Magnitude 21.47 mag
Discoverer Pan-STARRS 1 telescope (Haleakala)

* Orbital Elements

Epoch 2019 Aug. 25.0 TT = JDT 2458720.5
T 2019 Aug. 18.13894 TT                                 Bell
q   4.9144364            (2000.0)            P               Q
z  +0.0013541      Peri.  303.49960     +0.42316522     +0.46196873
 +/-0.0000041      Node    51.77224     +0.66791312     +0.42222925
e   0.9933452      Incl.   82.84104     -0.61222811     +0.77994061
H   14.0
From 35 observations 2019 Sept. 11-2020 Jan. 5, mean residual 0".3.

* Magnitudes Graph

        H = 14.0  G = 0.15

---------------------------------------------------------------------

The orbital elements are published on M.P.E.C. 2020-C98.
The magnitudes graphs are made with Comet for Windows.

---------------------------------------------------------------------

Copyright(C) Seiichi Yoshida (comet@aerith.net). All rights reserved.